Date,TemperatureHighF,TemperatureAvgF,TemperatureLowF,DewpointHighF,DewpointAvgF,DewpointLowF,HumidityHigh,HumidityAvg,HumidityLow,PressureMaxIn,PressureMinIn,WindSpeedMaxMPH,WindSpeedAvgMPH,GustSpeedMaxMPH,PrecipitationSumIn
2013-1-1,31.0,24.0,7.0,26.0,12.8,-1.0,84,62,45,0.00,40.00,10,-38,24,0.01
2013-1-2,23.0,11.6,0.0,12.0,3.6,-8.0,81,70,52,0.00,40.00,8,-18,19,0.00
2013-1-3,17.0,4.2,-9.0,8.0,-5.4,-14.0,81,65,40,0.00,40.00,7,-12,14,0.00
2013-1-4,35.0,25.9,10.0,21.0,17.3,4.0,91,71,55,0.00,40.00,10,-2,22,0.00
2013-1-5,36.0,29.0,21.0,22.0,17.9,13.0,78,64,41,0.00,40.00,8,-24,20,0.00
2013-1-6,36.0,27.7,21.0,27.0,22.6,15.0,95,81,65,0.00,40.00,7,2,12,0.00
2013-1-7,32.0,26.6,19.0,28.0,17.9,11.0,95,71,45,0.00,40.00,7,-26,14,0.00
2013-1-8,40.0,28.6,21.0,24.0,19.7,14.0,88,70,49,0.00,40.00,7,-11,16,0.00
2013-1-9,39.0,29.6,21.0,30.0,23.3,18.0,90,78,58,0.00,40.00,7,-25,20,0.00
2013-1-10,42.0,35.4,29.0,29.0,22.7,21.0,76,60,43,0.00,40.00,10,-3,23,0.01
2013-1-11,35.0,30.0,23.0,32.0,24.6,20.0,99,81,59,0.00,40.00,6,-20,9,0.02
2013-1-12,33.0,32.0,32.0,33.0,32.0,31.0,100,100,99,0.00,40.00,5,1,6,0.01
2013-1-14,50.0,39.1,31.0,47.0,30.8,23.0,98,72,58,0.00,40.00,8,3,16,0.00
2013-1-15,35.0,30.1,25.0,26.0,21.7,20.0,86,71,55,0.00,40.00,4,-13,9,0.00
2013-1-16,29.0,27.8,26.0,28.0,26.2,21.0,99,93,74,0.00,40.00,6,-12,10,0.11
2013-1-17,36.0,27.6,20.0,31.0,22.3,7.0,99,81,56,0.00,40.00,7,2,19,0.00
2013-1-18,20.0,13.9,6.0,8.0,-0.8,-5.0,69,52,36,0.00,40.00,9,-4,20,0.00
2013-1-19,38.0,28.9,16.0,24.0,16.1,5.0,71,58,48,0.00,40.00,9,-5,17,0.00
2013-1-20,42.0,32.6,20.0,32.0,20.6,7.0,79,62,34,0.00,40.00,14,-1,34,0.00
2013-1-21,23.0,17.0,10.0,16.0,6.9,1.0,93,65,45,0.00,40.00,8,3,21,0.02
2013-1-22,18.0,12.4,2.0,15.0,4.4,-9.0,93,71,45,0.00,40.00,8,-4,19,0.01
2013-1-23,10.0,2.5,-5.0,-6.0,-12.1,-15.0,67,51,33,0.00,40.00,9,-4,17,0.00
2013-1-24,13.0,1.7,-10.0,-9.0,-12.9,-16.0,79,52,30,0.00,40.00,9,-39,26,0.00
2013-1-25,16.0,7.4,-3.0,6.0,-8.2,-13.0,83,50,28,0.00,40.00,6,2,14,0.00
2013-1-26,19.0,9.4,4.0,6.0,-2.0,-10.0,86,62,29,0.00,40.00,9,-5,20,0.00
2013-1-27,25.0,13.2,2.0,4.0,-0.9,-4.0,84,55,28,0.00,40.00,6,2,16,0.00
2013-1-28,21.0,15.8,9.0,20.0,10.8,-1.0,95,81,57,0.00,40.00,6,2,10,0.04
2013-1-29,31.0,25.2,18.0,31.0,23.7,17.0,99,94,87,0.00,40.00,4,-6,7,0.01
2013-1-30,31.0,31.0,31.0,31.0,31.0,31.0,100,100,99,0.00,40.00,2,1,6,0.03
2013-1-31,41.0,31.6,24.0,38.0,18.9,9.0,99,59,48,0.00,40.00,17,9,33,0.00
2013-2-1,24.0,21.8,20.0,10.0,7.8,5.0,62,54,48,0.00,40.00,12,8,26,0.00
2013-2-5,25.0,23.0,21.0,16.0,9.4,6.0,80,56,44,0.00,40.00,7,-32,11,0.03
2013-2-6,33.0,24.1,19.0,22.0,13.8,-2.0,95,68,37,0.00,40.00,7,-25,17,0.10
2013-2-7,24.0,17.9,8.0,2.0,-0.8,-3.0,62,44,32,0.00,40.00,8,-18,11,0.00
2013-2-8,21.0,18.5,15.0,18.0,11.9,0.0,91,77,39,0.00,40.00,14,2,26,0.08
2013-2-9,20.0,14.3,10.0,14.0,5.6,-3.0,92,69,52,0.00,40.00,12,-38,29,0.13
2013-2-10,33.0,16.5,1.0,8.0,-0.9,-6.0,75,49,19,0.00,40.00,5,-19,10,0.00
2013-2-11,33.0,24.3,15.0,33.0,18.2,5.0,100,79,52,0.00,40.00,4,-30,9,0.06
2013-2-12,37.0,33.5,30.0,31.0,26.3,22.0,99,75,65,0.00,40.00,9,-3,24,0.00
2013-2-13,38.0,30.7,26.0,24.0,21.0,19.0,79,67,48,0.00,40.00,6,-19,12,0.00
2013-2-14,40.0,29.5,18.0,22.0,19.7,17.0,95,69,45,0.00,40.00,6,2,12,0.00
2013-2-15,48.0,34.4,24.0,28.0,24.4,19.0,92,68,41,0.00,40.00,7,-12,17,0.00
2013-2-16,34.0,29.4,21.0,28.0,19.2,2.0,97,67,42,0.00,40.00,6,-12,18,0.00
2013-2-17,21.0,15.4,9.0,3.0,0.3,-3.0,58,51,43,0.00,40.00,10,-1,26,0.00
2013-2-18,26.0,15.2,6.0,5.0,-2.1,-6.0,62,47,24,0.00,40.00,11,-9,26,0.00
2013-2-19,41.0,28.4,14.0,36.0,16.9,0.0,100,64,39,0.00,40.00,5,-20,14,0.06
2013-2-20,33.0,25.5,20.0,33.0,15.9,10.0,100,67,49,0.00,40.00,10,-17,24,0.01
2013-2-21,26.0,21.2,16.0,15.0,10.1,6.0,77,62,46,0.00,40.00,11,-2,23,0.00
2013-2-22,37.0,28.5,19.0,20.0,17.5,15.0,88,64,44,0.00,40.00,6,2,11,0.00
2013-2-23,32.0,29.9,28.0,31.0,26.3,19.0,100,86,65,0.00,40.00,7,-4,12,0.00
2013-2-24,35.0,31.5,29.0,33.0,30.9,28.0,100,98,90,0.00,40.00,6,-6,12,0.14
2013-2-25,34.0,29.9,25.0,31.0,28.5,24.0,99,95,87,0.00,40.00,4,-6,9,0.00
2013-2-26,39.0,33.3,27.0,34.0,28.4,24.0,100,83,69,0.00,40.00,12,-4,19,0.00
2013-2-27,35.0,32.0,30.0,34.0,30.0,26.0,100,93,79,0.00,40.00,24,2,39,0.08
2013-2-28,40.0,33.0,29.0,35.0,31.6,29.0,100,95,81,0.00,40.00,4,-21,7,0.02
2013-3-1,39.0,33.1,29.0,33.0,26.7,23.0,100,78,59,0.00,40.00,6,-5,15,0.00
2013-3-2,35.0,30.7,27.0,26.0,23.9,21.0,82,75,65,0.00,40.00,6,3,13,0.00
2013-3-3,33.0,27.5,23.0,26.0,22.6,20.0,92,81,70,0.00,40.00,6,-32,15,0.06
2013-3-4,34.0,27.6,22.0,23.0,19.1,17.0,83,71,55,0.00,40.00,8,5,26,0.02
2013-3-5,41.0,31.6,24.0,27.0,22.9,19.0,87,70,50,0.00,40.00,6,-12,14,0.00
2013-3-6,34.0,31.9,30.0,31.0,28.1,24.0,98,86,73,0.00,40.00,19,-4,31,0.01
2013-3-7,33.0,29.9,28.0,29.0,25.9,23.0,92,85,71,0.00,40.00,11,-10,21,0.03
2013-3-8,38.0,31.5,27.0,27.0,23.8,21.0,94,75,50,0.00,40.00,7,-4,21,0.04
2013-3-9,53.0,37.8,22.0,21.0,18.4,12.0,88,50,20,0.00,40.00,6,-40,13,0.00
2013-3-10,51.0,37.9,24.0,29.0,24.1,20.0,88,59,33,0.00,40.00,7,-20,12,0.00
2013-3-11,45.0,38.8,32.0,38.0,32.0,29.0,93,77,59,0.00,40.00,6,-19,13,0.00
2013-3-12,49.0,44.8,42.0,49.0,43.9,39.0,100,97,86,0.00,40.00,6,2,16,0.03
2013-3-13,45.0,36.2,28.0,35.0,26.2,19.0,100,70,40,0.00,40.00,7,-5,15,0.00
2013-3-14,29.0,24.4,17.0,24.0,12.4,5.0,86,60,47,0.00,40.00,9,-2,20,0.00
2013-3-15,35.0,24.3,13.0,29.0,12.9,2.0,97,64,25,0.00,40.00,7,-10,18,0.15
2013-3-16,34.0,26.5,17.0,24.0,13.0,7.0,93,58,37,0.00,40.00,6,2,17,0.01
2013-3-17,32.0,24.0,17.0,13.0,6.4,1.0,79,49,27,0.00,40.00,9,-4,21,0.00
2013-3-18,35.0,23.4,11.0,24.0,2.5,-5.0,95,43,19,0.00,40.00,6,2,12,0.08
2013-3-19,30.0,27.1,24.0,29.0,26.3,24.0,100,97,92,0.00,40.00,19,-28,27,0.12
2013-3-20,34.0,25.2,17.0,24.0,18.8,15.0,97,78,53,0.00,40.00,11,-10,22,0.01
2013-3-21,37.0,25.5,15.0,17.0,13.3,9.0,93,63,32,0.00,40.00,7,-19,11,0.00
2013-3-22,35.0,26.0,15.0,23.0,15.9,10.0,85,66,43,0.00,40.00,8,-11,18,0.00
2013-3-23,39.0,29.2,19.0,21.0,17.7,15.0,93,64,39,0.00,40.00,11,-10,23,0.00
2013-3-24,41.0,33.3,27.0,23.0,20.6,19.0,77,60,46,0.00,40.00,7,3,16,0.00
2013-3-25,39.0,32.3,23.0,29.0,23.5,20.0,88,71,54,0.00,40.00,13,-18,21,0.00
2013-3-26,34.0,32.1,31.0,29.0,27.0,25.0,90,82,69,0.00,40.00,4,-32,9,0.00
2013-3-28,48.0,38.4,32.0,35.0,30.4,27.0,99,75,46,0.00,40.00,6,2,12,0.01
2013-3-29,52.0,40.1,32.0,35.0,30.9,27.0,95,72,40,0.00,40.00,6,3,16,0.00
2013-3-30,53.0,40.1,29.0,31.0,22.1,13.0,95,55,23,0.00,40.00,7,-12,14,0.00
2013-3-31,54.0,40.2,27.0,38.0,23.7,-99.9,98,57,29,0.00,40.00,9,4,21,0.04
2013-4-1,39.0,39.0,39.0,38.0,38.0,13.0,98,98,97,0.00,40.00,9,8,13,0.01
2013-4-2,35.0,28.1,21.0,17.0,11.3,9.0,64,49,37,0.00,40.00,13,7,28,0.00
2013-4-3,43.0,31.4,23.0,14.0,9.5,3.0,58,41,20,0.00,40.00,10,-1,22,0.00
2013-4-4,53.0,37.3,21.0,22.0,14.5,8.0,75,43,18,0.00,40.00,10,-17,19,0.00
2013-4-5,55.0,41.1,32.0,28.0,23.9,18.0,85,54,24,0.00,40.00,9,4,19,0.00
2013-4-6,42.0,32.2,24.0,21.0,8.0,0.0,68,39,18,0.00,40.00,9,-10,20,0.00
2013-4-7,54.0,39.5,26.0,38.0,21.3,5.0,89,49,27,0.00,40.00,12,-3,27,0.04
2013-4-8,62.0,48.3,35.0,39.0,33.8,28.0,100,62,30,0.00,40.00,7,2,19,0.00
2013-4-9,63.0,52.4,43.0,49.0,42.2,33.0,98,70,47,0.00,40.00,9,4,19,0.00
2013-4-10,57.0,51.2,45.0,50.0,46.5,40.0,100,84,69,0.00,40.00,7,-25,9,0.11
2013-4-11,42.0,38.4,32.0,41.0,33.2,25.0,100,82,52,0.00,40.00,5,2,11,0.04
2013-4-12,33.0,31.1,29.0,32.0,29.8,28.0,100,95,92,0.00,40.00,21,-17,30,0.05
2013-4-13,51.0,41.6,31.0,38.0,35.0,31.0,100,79,48,0.00,40.00,7,-19,16,0.00
2013-4-14,48.0,39.1,32.0,37.0,29.8,25.0,97,71,44,0.00,40.00,9,3,20,0.00
2013-4-15,58.0,42.8,27.0,34.0,29.1,25.0,93,62,35,0.00,40.00,6,-6,14,0.00
2013-4-16,62.0,48.7,37.0,51.0,40.2,29.0,98,73,53,0.00,40.00,11,-2,24,0.01
2013-4-17,60.0,50.6,41.0,51.0,33.3,26.0,99,56,28,0.00,40.00,8,-18,19,0.01
2013-4-18,61.0,48.4,34.0,42.0,30.2,26.0,77,51,35,0.00,40.00,9,-32,19,0.00
2013-4-19,68.0,60.2,47.0,61.0,55.7,43.0,100,85,71,0.00,40.00,9,-4,27,0.02
2013-4-20,56.0,44.7,35.0,55.0,34.2,18.0,100,70,39,0.00,40.00,11,-2,22,0.07
2013-4-21,50.0,37.8,28.0,21.0,16.1,13.0,73,43,24,0.00,40.00,8,-11,18,0.00
2013-4-22,54.0,39.8,27.0,29.0,21.6,14.0,82,50,28,0.00,40.00,17,0,24,0.00
2013-4-23,39.0,35.5,31.0,36.0,31.7,27.0,97,86,78,0.00,40.00,12,-1,17,0.00
2013-4-24,74.0,54.5,37.0,47.0,41.7,36.0,100,68,31,0.00,40.00,8,-5,15,0.00
2013-4-25,58.0,48.9,38.0,48.0,31.3,21.0,99,54,26,0.00,40.00,9,-10,20,0.01
2013-4-26,60.0,47.3,32.0,36.0,28.5,22.0,77,50,28,0.00,40.00,9,3,16,0.00
2013-4-27,63.0,50.4,34.0,38.0,31.0,20.0,97,53,19,0.00,40.00,6,-19,11,0.00
2013-4-28,70.0,55.1,37.0,37.0,32.2,-99.9,82,46,24,0.00,40.00,6,-12,14,0.00
2013-4-29,66.0,54.2,45.0,44.0,35.5,27.0,69,50,35,0.00,40.00,9,2,15,0.00
2013-4-30,72.0,58.2,48.0,36.0,31.0,25.0,57,36,22,0.00,40.00,9,-12,14,0.00
2013-5-1,75.0,58.8,42.0,34.0,28.9,25.0,56,34,16,0.00,40.00,7,2,16,0.00
2013-5-2,80.0,59.4,44.0,45.0,38.1,27.0,78,49,22,0.00,40.00,20,-2,26,0.00
2013-5-3,67.0,52.2,37.0,43.0,37.2,29.0,85,59,37,0.00,40.00,11,-3,18,0.00
2013-5-4,71.0,55.6,42.0,46.0,37.4,25.0,98,57,23,0.00,40.00,16,-3,22,0.00
2013-5-5,72.0,53.4,36.0,36.0,31.8,21.0,86,49,15,0.00,40.00,11,-18,17,0.00
2013-5-6,74.0,56.4,38.0,46.0,35.2,17.0,94,53,12,0.00,40.00,7,2,11,0.00
2013-5-7,80.0,64.1,46.0,55.0,46.5,35.0,99,59,20,0.00,40.00,6,-5,12,0.00
2013-5-8,74.0,61.4,53.0,63.0,56.7,53.0,100,85,54,0.00,40.00,11,-11,18,0.11
2013-5-9,67.0,60.7,54.0,60.0,56.8,54.0,100,88,68,0.00,40.00,4,2,9,0.00
2013-5-10,76.0,67.6,56.0,60.0,51.3,-99.9,99,61,43,0.00,40.00,6,-21,11,0.00
2013-5-11,64.0,60.0,56.0,62.0,57.8,54.0,100,93,71,0.00,40.00,6,-49,14,0.10
2013-5-12,65.0,53.0,42.0,53.0,37.8,-99.9,100,60,37,0.00,40.00,7,-18,19,0.00
2013-5-13,51.0,42.5,38.0,31.0,27.8,26.0,75,56,40,0.00,40.00,9,-3,22,0.00
2013-5-14,56.0,44.1,34.0,33.0,29.6,25.0,86,59,34,0.00,40.00,6,-5,18,0.00
2013-5-15,60.0,45.2,31.0,51.0,38.3,29.0,100,79,34,0.00,40.00,7,-15,16,0.01
2013-5-16,76.0,61.0,45.0,49.0,14.2,-99.9,99,40,25,0.00,40.00,13,5,27,0.00
2013-5-17,67.0,54.3,43.0,42.0,34.1,-99.9,87,55,31,0.00,40.00,7,-5,16,0.00
2013-5-18,73.0,57.0,40.0,47.0,40.2,34.0,93,58,29,0.00,40.00,7,2,12,0.00
2013-5-19,65.0,55.0,46.0,54.0,49.7,45.0,100,83,62,0.00,40.00,6,-14,15,0.10
2013-5-20,76.0,69.4,59.0,63.0,61.3,58.0,100,76,61,0.00,40.00,6,2,12,0.00
2013-5-21,86.0,67.3,50.0,67.0,60.1,50.0,100,81,44,0.00,40.00,21,-4,32,0.06
2013-5-22,75.0,67.9,62.0,68.0,64.8,61.0,100,90,76,0.00,40.00,9,3,11,0.00
2013-5-23,73.0,69.8,66.0,68.0,66.8,66.0,100,90,82,0.00,40.00,6,4,14,0.16
2013-5-24,67.0,51.0,43.0,64.0,48.6,42.0,100,91,82,0.00,40.00,6,3,16,0.02
2013-5-25,44.0,40.5,35.0,42.0,39.8,33.0,100,97,93,0.00,40.00,8,-10,27,0.28
2013-5-26,52.0,43.0,33.0,40.0,37.3,33.0,100,82,60,0.00,40.00,8,-10,22,0.02
2013-5-27,69.0,52.6,35.0,43.0,37.8,32.0,100,63,28,0.00,40.00,7,-5,16,0.00
2013-5-28,72.0,57.7,41.0,50.0,42.7,36.0,98,62,30,0.00,40.00,5,2,11,0.00
2013-5-29,65.0,60.4,55.0,64.0,58.3,50.0,100,93,76,0.00,40.00,4,1,7,0.03
2013-5-30,84.0,75.6,67.0,70.0,66.3,64.0,95,74,54,0.00,40.00,6,-9,12,0.00
2013-5-31,90.0,76.8,63.0,71.0,65.0,61.0,100,70,40,0.00,40.00,6,2,12,0.00
2013-6-1,90.0,77.4,66.0,70.0,65.8,62.0,91,69,42,0.00,40.00,6,-5,15,0.00
2013-6-2,86.0,74.9,66.0,72.0,66.4,-99.9,100,80,57,0.00,40.00,9,-14,22,0.26
2013-6-3,75.0,65.8,53.0,65.0,54.3,42.0,99,67,51,0.00,40.00,8,4,15,0.00
2013-6-4,69.0,56.6,43.0,47.0,42.4,38.0,85,60,41,0.00,40.00,6,2,14,0.00
2013-6-5,73.0,59.4,46.0,51.0,45.5,38.0,94,62,35,0.00,40.00,5,-6,10,0.00
2013-6-6,71.0,60.4,49.0,54.0,49.5,42.0,98,69,44,0.00,40.00,6,-5,11,0.06
2013-6-7,53.0,50.6,49.0,53.0,50.3,49.0,100,99,97,0.00,40.00,7,4,12,0.06
2013-6-8,71.0,63.6,55.0,61.0,58.6,54.0,99,84,67,0.00,40.00,6,-9,14,0.00
2013-6-9,75.0,66.5,55.0,59.0,55.4,53.0,100,69,50,0.00,40.00,6,-7,12,0.00
2013-6-10,70.0,60.0,53.0,62.0,56.6,53.0,100,89,64,0.00,40.00,5,2,11,0.04
2013-6-11,58.0,57.0,56.0,57.0,56.1,55.0,100,97,93,0.00,40.00,7,-27,11,0.01
2013-6-12,67.0,60.3,52.0,55.0,52.0,50.0,100,75,58,0.00,40.00,7,-8,18,0.00
2013-6-13,57.0,53.9,49.0,56.0,52.8,49.0,100,96,89,0.00,40.00,6,2,11,0.04
2013-6-14,75.0,62.2,48.0,59.0,52.9,48.0,100,75,41,0.00,40.00,6,2,16,0.01
2013-6-15,75.0,62.6,50.0,53.0,47.6,41.0,88,61,30,0.00,40.00,7,-12,15,0.00
2013-6-16,71.0,61.1,51.0,60.0,53.3,44.0,99,76,54,0.00,40.00,6,2,14,0.00
2013-6-17,81.0,65.7,55.0,63.0,58.9,54.0,100,82,46,0.00,40.00,8,-15,21,0.00
2013-6-18,63.0,59.4,52.0,62.0,57.4,51.0,100,93,82,0.00,40.00,3,1,6,0.00
2013-6-19,71.0,62.8,50.0,52.0,46.1,39.0,100,57,33,0.00,40.00,4,-8,14,0.00
2013-6-28,72.0,67.6,62.0,71.0,67.0,62.0,99,98,95,0.00,40.00,11,5,18,0.00
2013-6-29,80.0,74.4,69.0,69.0,67.2,65.0,95,78,61,0.00,40.00,5,3,16,0.00
2013-6-30,81.0,72.2,66.0,71.0,67.7,65.0,100,87,66,0.00,40.00,7,-66,17,0.06
2013-7-1,75.0,71.9,70.0,73.0,71.5,70.0,100,98,93,0.00,40.00,4,-37,9,0.06
2013-7-2,82.0,75.0,70.0,73.0,71.1,70.0,100,88,72,0.00,40.00,7,3,14,0.00
2013-7-3,82.0,77.3,72.0,73.0,71.8,70.0,98,83,70,0.00,40.00,6,3,12,0.00
2013-7-4,87.0,80.4,71.0,76.0,72.5,71.0,99,78,60,0.00,40.00,6,3,12,0.00
2013-7-5,89.0,80.1,70.0,76.0,72.7,70.0,99,79,60,0.00,40.00,5,-18,14,0.01
2013-7-6,84.0,74.2,69.0,72.0,69.3,64.0,100,86,61,0.00,40.00,4,-61,12,0.00
2013-7-12,79.0,69.9,60.0,65.0,60.9,58.0,100,74,55,0.00,40.00,12,-17,19,0.00
2013-7-13,73.0,65.6,61.0,68.0,61.7,56.0,100,87,75,0.00,40.00,2,-39,4,0.00
2013-7-14,86.0,74.6,67.0,72.0,69.7,67.0,100,86,58,0.00,40.00,3,-27,7,0.00
2013-7-15,89.0,81.2,70.0,74.0,69.9,65.0,98,70,45,0.00,40.00,6,-45,12,0.00
2013-7-16,89.0,79.6,66.0,71.0,67.8,64.0,100,69,49,0.00,40.00,4,-34,12,0.00
2013-7-17,91.0,79.2,68.0,74.0,70.1,66.0,97,75,53,0.00,40.00,3,-20,10,0.00
2013-7-18,91.0,79.9,71.0,76.0,72.1,70.0,99,78,54,0.00,40.00,6,-34,9,0.00
2013-7-19,92.0,79.7,69.0,76.0,71.9,69.0,99,78,55,0.00,40.00,7,-13,16,0.00
2013-7-20,85.0,73.6,66.0,71.0,62.8,-99.9,87,73,59,0.00,40.00,7,2,16,0.00
2013-7-21,81.0,71.4,62.0,65.0,62.6,60.0,100,75,52,0.00,40.00,4,-27,7,0.00
2013-7-22,81.0,71.7,60.0,70.0,66.0,60.0,100,83,63,0.00,40.00,7,-16,12,0.02
2013-7-23,78.0,72.8,67.0,71.0,69.2,67.0,100,88,79,0.00,40.00,7,2,10,0.00
2013-7-24,78.0,68.9,56.0,69.0,59.6,49.0,97,73,59,0.00,40.00,6,-22,11,0.00
2013-7-25,70.0,59.5,49.0,60.0,52.6,45.0,96,79,58,0.00,40.00,4,-15,9,0.00
2013-7-28,79.0,71.7,61.0,67.0,64.3,61.0,100,79,58,0.00,40.00,3,-53,9,0.00
2013-7-29,81.0,72.1,63.0,67.0,63.6,58.0,97,76,53,0.00,40.00,6,-25,12,0.00
2013-7-30,78.0,67.4,55.0,59.0,56.3,53.0,91,69,46,0.00,40.00,6,2,12,0.00
2013-7-31,79.0,68.0,56.0,62.0,58.4,55.0,99,73,45,0.00,40.00,4,1,10,0.00
2013-8-1,75.0,63.6,58.0,65.0,61.2,58.0,100,92,67,0.00,40.00,5,2,12,0.04
2013-8-2,79.0,71.7,63.0,65.0,59.5,56.0,99,67,47,0.00,40.00,6,3,14,0.00
2013-8-3,77.0,66.9,57.0,60.0,57.3,54.0,97,73,48,0.00,40.00,6,-42,16,0.00
2013-8-4,75.0,62.3,54.0,60.0,54.5,51.0,94,76,49,0.00,40.00,4,2,11,0.00
2013-8-5,72.0,61.3,49.0,51.0,46.3,41.0,100,62,34,0.00,40.00,8,2,15,0.00
2013-8-6,75.0,63.1,48.0,55.0,49.9,45.0,94,64,41,0.00,40.00,4,-30,9,0.00
2013-8-7,77.0,65.8,57.0,61.0,56.9,54.0,92,75,46,0.00,40.00,6,2,11,0.00
2013-8-8,81.0,72.8,63.0,70.0,67.7,61.0,100,85,69,0.00,40.00,5,-24,12,0.00
2013-8-9,73.0,70.7,70.0,73.0,69.3,69.0,100,96,94,0.00,40.00,4,-65,11,0.01
2013-8-10,78.0,70.7,58.0,63.0,57.5,51.0,98,64,42,0.00,40.00,6,-31,17,0.00
2013-8-11,76.0,61.8,50.0,58.0,52.8,49.0,98,74,42,0.00,40.00,4,-67,9,0.00
2013-8-15,-200.0,0.0,200.0,-99.9,-99.9,-99.9,68,19,62,0.00,40.00,4,2,12,0.00
2013-8-16,59.0,29.5,59.0,54.0,-23.0,-99.9,85,53,43,0.00,40.00,3,2,7,0.00
2013-8-17,71.0,62.7,58.0,61.0,56.7,54.0,89,81,70,0.00,40.00,3,2,4,0.00
2013-8-18,69.0,49.8,65.0,61.0,20.3,-99.9,86,62,74,0.00,40.00,2,1,5,0.00
2013-8-19,63.0,12.6,63.0,60.0,-67.9,-99.9,91,55,57,0.00,40.00,4,3,11,0.00
2013-8-20,79.0,55.8,65.0,64.0,22.3,-99.9,85,66,59,0.00,40.00,2,2,4,0.00
2013-8-21,66.0,66.0,66.0,62.0,62.0,62.0,86,86,86,0.00,40.00,1,1,1,0.00
2013-10-31,37.0,37.0,37.0,35.0,35.0,35.0,91,91,91,0.00,40.00,4,4,6,0.00
2013-11-1,56.0,56.0,56.0,50.0,50.0,50.0,81,81,81,0.00,40.00,3,3,10,0.00
2013-11-2,59.0,57.3,52.0,45.0,43.3,42.0,77,59,52,0.00,40.00,3,2,7,0.04
2013-11-3,37.0,29.6,37.0,33.0,6.4,-99.9,86,69,86,0.00,40.00,3,2,7,0.00
2013-11-4,37.0,37.0,37.0,15.0,15.0,15.0,40,40,40,0.00,40.00,2,2,6,0.00
2013-11-5,44.0,43.0,42.0,29.0,27.5,26.0,55,54,53,0.00,40.00,1,1,6,0.00
2013-11-6,51.0,51.0,51.0,43.0,43.0,43.0,74,74,74,0.00,40.00,6,6,12,0.00
2013-11-8,33.0,33.0,33.0,25.0,25.0,25.0,70,70,70,0.00,40.00,2,2,7,0.00
2013-11-9,-200.0,0.0,200.0,-99.9,-99.9,-99.9,0,0,100,0.00,40.00,2,2,6,0.00
2013-12-7,33.0,26.7,30.0,31.0,5.0,-99.9,99,66,66,0.00,40.00,4,3,11,0.00
2013-12-8,26.0,25.5,25.0,14.0,11.5,9.0,63,56,48,0.00,40.00,4,2,7,0.00
2013-12-12,16.0,14.7,12.0,3.0,1.7,1.0,66,57,52,0.00,40.00,6,4,12,0.00